Location: Newark
(52.3500°N, 175.9667°E)
Time: 20:30:58
(UTC+00:00)

ISS - Pass Details

Date: 07 March 2021
Orbit: 418 x 422 km, 51.6° (Epoch: 16 April)

Event Time Altitude Azimuth Distance (km) Brightness Sun altitude
Exits shadow 17:52:06 14° 266° (W) 1,303 -2.0 -9.3°
Maximum altitude 17:54:32 30° 209° (SSW) 784 -2.7 -8.9°
Drops below altitude 10° 17:57:31 10° 146° (SE) 1,495 -0.5 -8.5°
Sets 17:59:45 0° 135° (SE) 2,356 0.7 -8.1°
